Rock Springs, WY

4:34 AM MST on February 22, 2017 (GMT -0700)
Rock Springs-Sweetwater

Weather History for KRKS - October, 2011

Change the Weather History Date:

Sunday, October 23, 2011

  Actual Average Record
Temperature  
Mean Temperature 51 °F 42 °F  
Max Temperature 63 °F 53 °F 73 °F (2003)
Min Temperature 39 °F 30 °F 16 °F (1984)
Degree Days  
Heating Degree Days 14 23  
Month to date heating degree days 285 439  
Since 1 July heating degree days 424 767  
Cooling Degree Days 0 0  
Month to date cooling degree days 0 0  
Year to date cooling degree days 333 286  
Moisture  
Dew Point 26 °F    
Average Humidity 41    
Maximum Humidity 60    
Minimum Humidity 22    
Precipitation  
Precipitation 0.00 in 0.03 in 0.84 in (1956)
Month to date precipitation 0.64 0.66  
Year to date precipitation 7.15 7.36  
Snow  
Snow 0.00 in - - ()
Snow Depth 0.00 in    
Sea Level Pressure  
Sea Level Pressure 30.15 in    
Wind  
Wind Speed 15 mph (WSW)    
Max Wind Speed 28 mph    
Max Gust Speed 36 mph    
Visibility 10 miles    
Events      
T = Trace of Precipitation, MM = Missing Value Source: NWS Daily Summary

Daily Weather History Graph

Daily Weather History Graph

Search for Another Location

Airport or City:

Trip Planner

Search our weather history database for the weather conditions in past years. The results will help you decide how hot, cold, wet, or windy it might be!

Date:

Astronomy

Oct. 23, 2011 Rise Set
Actual Time 7:37 AM MDT 6:23 PM MDT
Civil Twilight 7:08 AM MDT 6:51 PM MDT
Nautical Twilight 6:36 AM MDT 7:23 PM MDT
Astronomical Twilight 6:04 AM MDT 7:56 PM MDT
Moon 3:45 AM MDT (10/23) 4:18 PM MDT (10/23)
Length of Visible Light 11h 42m
Length of Day
10h 46m
Waning Crescent, 14% of the Moon is Illuminated
Oct 23
Waning Crescent
Oct 26
New
Nov 2
First Quarter
Nov 10
Full
Nov 18
Last Quarter

Hourly Weather History & Observations

Time (MDT) Temp. Windchill Dew Point Humidity Pressure Visibility Wind Dir Wind Speed Gust Speed Precip Events Conditions
12:54 AM 45.0 °F 36.0 °F 28.9 °F 53% 30.17 in 10.0 mi West 25.3 mph 31.1 mph N/A   Clear
1:54 AM 45.0 °F 35.6 °F 28.9 °F 53% 30.17 in 10.0 mi West 27.6 mph 35.7 mph N/A   Clear
2:54 AM 45.0 °F 36.4 °F 28.9 °F 53% 30.17 in 10.0 mi West 23.0 mph - N/A   Clear
3:54 AM 43.0 °F 34.5 °F 28.9 °F 58% 30.18 in 10.0 mi West 19.6 mph 26.5 mph N/A   Clear
4:54 AM 44.1 °F 36.5 °F 30.0 °F 58% 30.17 in 10.0 mi West 17.3 mph 29.9 mph N/A   Clear
5:54 AM 43.0 °F 35.7 °F 28.9 °F 58% 30.18 in 10.0 mi WSW 15.0 mph 23.0 mph N/A   Clear
6:54 AM 41.0 °F 33.9 °F 28.0 °F 60% 30.20 in 10.0 mi West 12.7 mph - N/A   Clear
7:54 AM 39.0 °F 31.4 °F 27.0 °F 62% 30.22 in 10.0 mi WSW 12.7 mph - N/A   Clear
8:54 AM 43.0 °F 37.2 °F 28.0 °F 56% 30.23 in 10.0 mi SW 10.4 mph - N/A   Clear
9:54 AM 48.0 °F - 28.9 °F 48% 30.22 in 10.0 mi WSW 19.6 mph - N/A   Clear
12:54 PM 57.9 °F - 28.0 °F 32% 30.16 in 10.0 mi West 23.0 mph 28.8 mph N/A   Clear
1:54 PM 60.1 °F - 26.1 °F 27% 30.12 in 10.0 mi West 19.6 mph 29.9 mph N/A   Clear
2:54 PM 61.0 °F - 23.0 °F 23% 30.10 in 10.0 mi West 13.8 mph 31.1 mph N/A   Clear
3:54 PM 62.1 °F - 24.1 °F 23% 30.08 in 10.0 mi West 18.4 mph 25.3 mph N/A   Clear
4:54 PM 61.0 °F - 21.9 °F 22% 30.07 in 10.0 mi West 16.1 mph - N/A   Clear
5:54 PM 59.0 °F - 21.9 °F 24% 30.08 in 10.0 mi West 13.8 mph - N/A   Clear
6:54 PM 53.1 °F - 23.0 °F 31% 30.12 in 10.0 mi West 6.9 mph - N/A   Clear
7:54 PM 48.9 °F - 23.0 °F 36% 30.16 in 10.0 mi WSW 9.2 mph - N/A   Clear
8:54 PM 48.0 °F - 23.0 °F 37% 30.14 in 10.0 mi WSW 8.1 mph - N/A   Clear
9:54 PM 46.0 °F 42.5 °F 23.0 °F 40% 30.13 in 10.0 mi SW 6.9 mph - N/A   Clear
10:54 PM 45.0 °F 42.6 °F 24.1 °F 44% 30.11 in 10.0 mi SSW 4.6 mph - N/A   Clear
11:54 PM 43.0 °F 39.5 °F 24.1 °F 47% 30.10 in 10.0 mi SSW 5.8 mph - N/A   Clear